Total_Precipitation_Accumulation
0.02 0.07 0.27 0.48 0.87 1.64 1.58 0.99 0.49 0.28 0.25 0.31 0.38 0.43 0.44 0.41 0.55 0.93 0.45 0.20 0.09 0.06 0.08 0.15 0.20 0.17 0.17 0.24 0.27 0.31 0.36 0.36 0.35 0.38 0.40 0.45 0.39 0.32 0.31 0.33 0.32 0.31 0.34 0.30 0.28 0.27 0.28 0.31 0.30
0.03 0.12 0.32 0.53 1.23 1.78 1.31 1.12 0.42 0.23 0.21 0.31 0.37 0.41 0.42 0.41 0.25 0.28 0.30 0.25 0.14 0.09 0.08 0.09 0.16 0.18 0.17 0.23 0.31 0.43 0.45 0.42 0.39 0.43 0.41 0.36 0.30 0.29 0.28 0.29 0.31 0.32 0.29 0.26 0.24 0.23 0.23 0.24 0.24
0.06 0.17 0.37 0.54 0.95 1.08 0.72 0.57 0.26 0.23 0.25 0.29 0.36 0.37 0.39 0.47 0.29 0.26 0.28 0.21 0.16 0.10 0.08 0.10 0.15 0.16 0.18 0.25 0.33 0.37 0.33 0.31 0.33 0.37 0.36 0.34 0.29 0.31 0.31 0.30 0.29 0.29 0.26 0.24 0.22 0.22 0.21 0.22 0.26
0.07 0.17 0.29 0.43 0.47 0.52 0.45 0.31 0.19 0.17 0.21 0.28 0.32 0.33 0.43 0.38 0.25 0.32 0.36 0.34 0.18 0.11 0.08 0.12 0.16 0.17 0.16 0.19 0.22 0.28 0.32 0.28 0.29 0.31 0.33 0.34 0.33 0.36 0.32 0.25 0.26 0.27 0.27 0.25 0.23 0.22 0.21 0.22 0.27
0.08 0.22 0.32 0.34 0.29 0.38 0.38 0.29 0.22 0.15 0.15 0.28 0.38 0.50 0.54 0.39 0.28 0.41 0.43 0.43 0.26 0.15 0.10 0.13 0.19 0.18 0.17 0.18 0.21 0.24 0.28 0.30 0.32 0.32 0.31 0.32 0.31 0.33 0.32 0.25 0.22 0.24 0.25 0.24 0.24 0.23 0.25 0.28 0.32
0.10 0.22 0.23 0.21 0.22 0.29 0.28 0.21 0.19 0.18 0.22 0.27 0.39 0.63 0.69 0.53 0.38 0.40 0.48 0.41 0.35 0.27 0.18 0.19 0.25 0.22 0.22 0.22 0.22 0.23 0.24 0.25 0.25 0.28 0.30 0.29 0.26 0.31 0.35 0.32 0.24 0.22 0.21 0.22 0.23 0.23 0.27 0.33 0.37
0.09 0.15 0.12 0.11 0.15 0.22 0.23 0.17 0.17 0.14 0.18 0.28 0.35 0.67 0.85 0.88 0.64 0.52 0.60 0.63 0.62 0.44 0.28 0.26 0.28 0.26 0.28 0.33 0.28 0.27 0.26 0.27 0.29 0.30 0.32 0.30 0.29 0.29 0.31 0.38 0.34 0.27 0.29 0.29 0.28 0.26 0.29 0.34 0.39
0.03 0.05 0.06 0.07 0.08 0.15 0.19 0.17 0.15 0.16 0.18 0.25 0.33 0.53 0.85 0.79 0.55 0.61 0.92 0.95 1.03 0.83 0.57 0.42 0.34 0.35 0.31 0.30 0.32 0.33 0.34 0.33 0.33 0.33 0.32 0.33 0.34 0.33 0.36 0.36 0.39 0.37 0.42 0.44 0.40 0.39 0.39 0.39 0.40
0.02 0.03 0.04 0.03 0.04 0.08 0.10 0.13 0.13 0.13 0.16 0.31 0.42 0.55 0.70 0.60 0.55 0.66 1.19 1.23 1.19 1.01 0.79 0.65 0.52 0.44 0.39 0.34 0.35 0.44 0.45 0.43 0.42 0.47 0.44 0.48 0.57 0.56 0.62 0.56 0.63 0.63 0.63 0.67 0.65 0.66 0.67 0.63 0.53
0.02 0.01 0.01 0.01 0.02 0.04 0.08 0.13 0.13 0.15 0.28 0.65 0.87 0.85 0.81 0.71 0.77 0.95 1.27 1.12 1.16 1.17 0.99 0.86 0.71 0.58 0.49 0.47 0.59 0.76 0.66 0.66 0.70 0.83 0.83 0.96 1.13 1.10 0.73 0.78 1.06 1.15 1.21 1.18 1.16 1.16 0.98 0.84 0.79
0.02 0.02 0.01 0.01 0.01 0.02 0.05 0.10 0.13 0.17 0.52 0.96 1.22 1.03 0.93 1.00 1.05 1.28 1.58 1.59 1.47 1.55 1.34 1.13 0.97 0.81 0.73 0.85 0.78 0.87 0.99 1.07 1.10 1.14 1.15 1.29 1.23 1.05 0.88 0.99 1.27 1.53 1.60 1.48 1.66 1.71 1.34 1.41 1.66
0.02 0.02 0.01 0.00 0.01 0.02 0.04 0.07 0.13 0.24 0.48 0.68 0.83 0.98 1.08 1.22 1.47 1.66 1.70 1.86 1.80 1.76 1.65 1.60 1.36 1.20 1.26 1.21 0.95 0.90 0.94 1.03 1.17 1.41 1.38 1.45 1.62 1.52 1.44 1.48 1.53 1.68 1.87 2.10 2.09 2.24 2.10 2.02 1.92
0.01 0.02 0.01 0.00 0.01 0.02 0.04 0.06 0.16 0.32 0.42 0.52 0.84 1.18 1.41 1.43 1.72 1.97 2.02 2.26 2.08 1.95 1.90 1.87 1.82 1.65 1.71 1.52 1.33 1.17 1.27 1.27 1.32 1.45 1.56 1.53 1.74 1.89 1.88 1.81 1.78 1.72 1.82 1.99 2.16 2.22 2.56 2.67 2.31
0.00 0.01 0.01 0.01 0.02 0.03 0.07 0.11 0.21 0.36 0.52 0.69 0.92 1.19 1.49 1.73 1.93 2.01 2.33 2.54 2.52 2.35 2.36 2.18 2.11 2.10 2.07 1.97 1.92 1.85 1.65 1.64 1.60 1.56 1.56 1.60 1.80 2.01 2.10 1.99 1.96 1.84 1.81 1.97 2.15 2.33 2.79 2.80 2.63
0.00 0.01 0.03 0.03 0.04 0.07 0.09 0.24 0.38 0.51 0.60 0.73 0.93 1.09 1.42 1.91 2.18 2.18 2.38 2.53 2.49 2.78 2.79 2.78 2.72 2.85 2.77 2.57 2.43 2.26 2.09 1.92 1.87 1.91 1.92 1.83 1.86 2.00 2.01 1.84 1.78 1.82 1.98 2.13 2.18 2.33 2.63 2.37 2.35
0.02 0.08 0.10 0.11 0.09 0.10 0.14 0.42 0.53 0.62 0.63 0.83 1.02 1.18 1.48 1.76 2.09 2.23 2.45 2.64 2.72 3.03 3.15 3.29 3.32 3.31 3.15 3.07 2.98 2.75 2.53 2.36 2.17 2.09 2.14 1.98 1.91 1.92 2.06 1.87 1.73 2.02 2.10 2.18 2.39 2.51 2.53 2.48 2.47
0.05 0.06 0.08 0.11 0.09 0.08 0.14 0.36 0.47 0.62 0.84 1.03 1.20 1.30 1.40 1.66 1.97 2.32 2.59 2.92 3.22 3.51 3.73 3.86 3.88 3.73 3.46 3.44 3.41 3.25 3.06 2.70 2.36 2.18 2.09 1.95 1.91 1.99 2.24 2.18 2.23 2.35 2.39 2.39 2.28 2.54 2.55 2.47 2.47
0.03 0.06 0.07 0.10 0.09 0.09 0.19 0.41 0.47 0.65 0.90 1.00 1.27 1.41 1.50 1.58 2.02 2.44 2.63 3.07 3.56 4.03 4.39 4.20 4.07 4.21 4.07 3.89 3.72 3.41 2.98 2.58 2.41 2.32 2.12 2.00 2.02 2.10 2.43 2.27 2.23 2.33 2.44 2.45 2.40 2.39 2.42 2.23 2.21
0.03 0.06 0.09 0.12 0.10 0.12 0.23 0.49 0.70 0.82 1.08 1.09 1.13 1.28 1.42 1.55 1.84 2.22 2.51 3.09 3.71 4.08 4.45 4.58 4.54 4.38 4.15 3.72 3.37 3.11 2.88 2.71 2.46 2.28 2.19 2.06 1.97 2.05 2.35 2.23 2.31 2.28 2.26 2.28 2.31 2.32 2.19 1.86 2.05
0.04 0.07 0.09 0.14 0.13 0.17 0.33 0.54 0.80 0.83 0.92 0.99 0.92 0.97 1.16 1.52 1.76 2.25 2.50 2.71 3.22 3.74 4.18 4.45 4.58 4.42 4.04 3.59 3.31 3.12 3.06 2.71 2.41 2.37 2.35 2.16 2.17 2.16 2.16 2.21 2.18 2.20 2.27 2.19 2.15 2.21 2.01 1.68 1.81
0.06 0.07 0.09 0.10 0.12 0.24 0.35 0.73 0.98 0.87 0.85 0.89 0.91 0.98 1.15 1.61 2.04 2.28 2.42 2.56 2.82 3.26 3.57 3.67 3.81 3.76 3.56 3.54 3.48 3.32 3.22 2.81 2.63 2.60 2.58 2.40 2.37 2.30 2.25 2.20 2.09 2.00 1.89 1.84 1.89 1.95 1.91 1.74 1.66
0.08 0.06 0.06 0.07 0.14 0.34 0.38 0.83 1.26 1.09 0.94 1.00 1.09 1.06 1.33 1.66 1.69 1.79 2.07 2.37 2.60 2.83 3.14 3.37 3.42 3.34 3.22 3.26 3.22 3.04 2.79 2.61 2.66 2.86 2.83 2.56 2.33 2.12 1.88 1.76 1.78 1.76 1.69 1.64 1.49 1.53 1.60 1.54 1.42
0.06 0.05 0.06 0.09 0.16 0.32 0.40 0.61 1.10 1.13 1.17 1.08 1.11 1.24 1.45 1.44 1.43 1.52 1.71 2.02 2.16 2.44 2.68 2.96 3.22 3.27 3.18 3.17 3.06 3.02 2.84 2.77 2.78 2.69 2.57 2.33 2.08 1.80 1.53 1.42 1.47 1.48 1.43 1.35 1.29 1.33 1.25 1.20 1.21
0.05 0.06 0.12 0.18 0.31 0.65 0.52 0.52 0.94 1.11 1.01 0.92 0.99 1.04 1.23 1.24 1.26 1.43 1.61 1.84 1.94 2.06 2.18 2.30 2.52 2.77 2.87 2.87 2.79 2.75 2.63 2.56 2.46 2.26 2.06 1.85 1.69 1.45 1.23 1.13 1.20 1.28 1.31 1.27 1.23 1.25 1.16 1.16 1.28
0.06 0.09 0.39 0.74 0.98 1.03 0.56 0.60 1.04 0.90 0.72 0.74 0.89 0.91 0.87 0.92 0.97 1.19 1.32 1.42 1.53 1.65 1.73 1.83 2.03 2.31 2.38 2.34 2.32 2.37 2.32 2.26 2.15 2.09 1.92 1.69 1.46 1.18 1.11 1.11 1.15 1.19 1.25 1.17 1.16 1.14 1.17 1.27 1.35
0.08 0.09 0.34 0.62 0.75 0.82 0.67 1.01 1.45 0.97 0.75 0.79 0.82 0.80 0.75 0.75 0.74 0.88 1.08 1.27 1.33 1.37 1.46 1.55 1.80 1.96 2.01 1.91 1.98 2.09 2.08 2.13 2.03 2.05 1.85 1.56 1.34 1.22 1.26 1.22 1.14 1.10 1.14 1.07 1.17 1.12 1.14 1.24 1.30
0.09 0.08 0.14 0.28 0.37 0.59 0.83 1.13 1.17 0.72 0.63 0.72 0.74 0.72 0.76 0.76 0.72 0.77 0.83 0.98 1.04 1.07 1.15 1.26 1.60 1.80 1.85 1.82 1.89 1.97 2.01 1.98 1.87 1.76 1.60 1.37 1.33 1.28 1.37 1.34 1.27 1.20 1.20 1.24 1.34 1.32 1.35 1.48 1.47
0.10 0.11 0.16 0.22 0.35 0.57 0.79 1.09 1.24 0.86 0.70 0.52 0.47 0.50 0.47 0.48 0.52 0.56 0.55 0.62 0.74 0.90 1.08 1.22 1.32 1.52 1.68 1.71 1.72 1.74 1.84 1.76 1.64 1.57 1.39 1.21 1.12 1.15 1.29 1.35 1.30 1.24 1.24 1.34 1.45 1.50 1.63 1.73 1.71
0.13 0.11 0.13 0.17 0.20 0.38 0.79 1.02 0.82 0.68 0.57 0.53 0.47 0.50 0.45 0.39 0.40 0.44 0.50 0.55 0.69 0.81 0.97 1.13 1.18 1.30 1.43 1.49 1.58 1.56 1.52 1.54 1.52 1.40 1.24 1.17 1.12 1.10 1.12 1.20 1.27 1.24 1.26 1.34 1.41 1.43 1.65 1.75 1.73
0.14 0.11 0.13 0.17 0.17 0.24 0.43 0.64 0.51 0.57 0.57 0.50 0.49 0.55 0.58 0.53 0.47 0.48 0.55 0.61 0.71 0.80 0.85 0.91 0.98 1.09 1.23 1.39 1.57 1.63 1.57 1.56 1.49 1.31 1.18 1.14 1.12 1.13 1.15 1.22 1.23 1.14 1.12 1.25 1.32 1.37 1.51 1.60 1.58